This is the latest recevied weather packets stored in our database for station/object 9W2CHF-4. If no packets are shown the sender has not sent any weather packets the latest 10 day(s).
| Time | Temp. | Humidity | Pressure | Rain* | Wind** | Luminosity | Snow |
|---|---|---|---|---|---|---|---|
| 1777969418 | 33.89° C | 74% | 1007.1 hPa | - | - | - | - |
| 1777968518 | 33.89° C | 75% | 1007.1 hPa | - | - | - | - |
| 1777967618 | 33.89° C | 74% | 1006.9 hPa | - | - | - | - |
| 1777966718 | 33.89° C | 76% | 1007.1 hPa | - | - | - | - |
| 1777965818 | 33.33° C | 78% | 1007.3 hPa | - | - | - | - |
| 1777964917 | 33.33° C | 79% | 1007.6 hPa | - | - | - | - |
| 1777964016 | 33.33° C | 81% | 1007.8 hPa | - | - | - | - |
| 1777963116 | 33.33° C | 83% | 1008.1 hPa | - | - | - | - |
| 1777962216 | 32.78° C | 86% | 1008.2 hPa | - | - | - | - |
| 1777961316 | 32.78° C | 86% | 1008.3 hPa | - | - | - | - |
| 1777960416 | 32.78° C | 86% | 1008.8 hPa | - | - | - | - |
| 1777959516 | 32.78° C | 89% | 1009.1 hPa | - | - | - | - |
| 1777958616 | 32.22° C | 88% | 1009.2 hPa | - | - | - | - |
| 1777957715 | 32.22° C | 85% | 1009.5 hPa | - | - | - | - |
| 1777956814 | 32.22° C | 85% | 1009.7 hPa | - | - | - | - |
| 1777955914 | 32.22° C | 84% | 1010.1 hPa | - | - | - | - |
| 1777955014 | 32.78° C | 81% | 1010.3 hPa | - | - | - | - |
| 1777954114 | 32.78° C | 77% | 1010.5 hPa | - | - | - | - |
| 1777953214 | 32.78° C | 75% | 1010.4 hPa | - | - | - | - |
| 1777952314 | 32.78° C | 74% | 1010.4 hPa | - | - | - | - |
| 1777951414 | 32.78° C | 73% | 1010.5 hPa | - | - | - | - |
| 1777950514 | 32.78° C | 73% | 1010.8 hPa | - | - | - | - |
| 1777949613 | 32.22° C | 72% | 1010.9 hPa | - | - | - | - |
| 1777948714 | 32.22° C | 66% | 1011 hPa | - | - | - | - |
| 1777947813 | 32.22° C | 56% | 1011.1 hPa | - | - | - | - |
* Rain since midnight (hover to see other rain measurements)
** Current wind speed in m/s (hover to see current wind gust speed)